Regional Weather Roundup
Issued by NWS

Home | Current Version | Previous Version | Graphics & Text | Print | Product List | Glossary On
Versions: 1 2 3 4 5 6 7 8 9 10 11 12 13 14 15 16 17 18 19 20 21 22 23 24 25 26 27 28 29 30 31 32 33 34 35 36 37 38 39 40 41 42 43 44 45 46 47 48 49 50
623
ASUS43 KDTX 300810
RWRMI
MICHIGAN HOURLY REGIONAL WEATHER ROUNDUP
NATIONAL WEATHER SERVICE DETROIT/PONTIAC MI
400 AM EDT SAT JUL 30 2016

NOTE: "FAIR" INDICATES FEW OR NO CLOUDS BELOW 12,000 FEET WITH NO
SIGNIFICANT WEATHER AND/OR OBSTRUCTION TO VISIBILITY.

MIZ047>049-052>055-059>063-066>070-074>076-081>083-300900-
SOUTHEAST LOWER MICHIGAN

CITY           SKY/WX    TMP DP  RH WIND       PRES   REMARKS
ADRIAN         CLOUDY    65  61  87 N8        29.95F
ALMA           LGT RAIN  63  61  92 NW8       30.01S
ANN ARBOR      CLOUDY    68  60  75 N6        29.95R
BAD AXE        CLOUDY    67  57  71 E8        30.01S
CARO           CLOUDY    66  58  75 NE3       29.98F
DETROIT CITY   CLOUDY    68  63  84 NE6       29.94F
DETROIT        LGT RAIN  68  62  81 NE5       29.94F
FLINT          CLOUDY    70  59  68 NE5       29.98S
GROSSE ILE     CLOUDY    69  63  79 N7        29.92F
HILLSDALE      CLOUDY    64  59  85 N5        29.96S
HOWELL         CLOUDY    65  60  81 CALM      29.97F

CITY           SKY/WX    TMP DP  RH WIND       PRES   REMARKS
JACKSON        CLOUDY    63  60  90 NE3       29.97F
LAMBERTVILLE   CLOUDY    68  60  76 NE3       29.93F
LANSING        CLOUDY    66  57  72 NE7       29.98F
LAPEER         DRIZZLE   67  59  75 N3        29.99R
MASON          CLOUDY    64  57  77 CALM      29.97F
MONROE         CLOUDY    67  62  85 NE3       29.92S
MT. CLEMENS    CLOUDY    68  63  83 NE8       29.93F
PONTIAC        CLOUDY    66  62  87 N6        29.96S
PORT HOPE        N/A     71  60  68 E20       30.00F
PORT HURON     DRIZZLE   68  64  88 N3        29.97S
TRI CITIES     MOCLDY    68  61  78 NE9       30.00F
MIDLAND        CLOUDY    63  58  82 N3        30.00S
TROY           LGT RAIN  69  62  78 NE6       29.96F
SAGINAW HB     CLOUDY    64  59  82 N6        29.99S
$$
MIZ043>046-050>051-056>058-064>065-071>073-077>080-300900-
SOUTHWEST LOWER MICHIGAN

CITY           SKY/WX    TMP DP  RH WIND       PRES   REMARKS
BATTLE CREEK   MOCLDY    63  61  93 NE6       29.97F
BENTON HARBOR  CLOUDY    67  61  81 NE3       29.94R
BIG RAPIDS     CLOUDY    62  57  85 CALM      30.02F
COLDWATER      CLOUDY    64  62  94 N6        29.96S
FREMONT        FAIR      64  58  81 E10       30.00S
HOLLAND        CLOUDY    64  58  80 E8        29.98S
GRAND RAPIDS   LGT RAIN  61  59  93 NE14      29.99F FOG
IONIA          HVY RAIN  61  59  94 NE13G21   30.00S
KALAMAZOO      LGT RAIN  64  58  80 CALM      29.97S
LUDINGTON      CLOUDY    62  57  83 E5        30.01S
MARSHALL       CLOUDY    65  59  80 CALM      29.97S
MOUNT PLEASANT CLOUDY    63  55  77 N5        30.01S
MUSKEGON       RAIN      64  61  90 N5        29.99S
SOUTH HAVEN    CLOUDY    66  61  83 E6        29.95S
$$
MIZ016>042-300900-
NORTHERN LOWER MICHIGAN

CITY           SKY/WX    TMP DP  RH WIND       PRES   REMARKS
ALPENA         CLOUDY    55  51  86 CALM      30.06F
BEAVER ISLAND  CLEAR     54  54 100 CALM      30.07S FOG
BELLAIRE       CLEAR     52  50  94 CALM      30.06S
CADILLAC       CLEAR     57  52  83 NE3       30.05S
CHARLEVOIX     PTCLDY    55  52  89 CALM      30.09S
FRANKFORT      PTCLDY    64  51  62 E6        30.03S
GAYLORD        CLOUDY    55  47  74 CALM      30.07S
GRAYLING       PTCLDY    48  47  97 CALM      30.07S
HARBOR SPRINGS PTCLDY    55  52  90 CALM      30.07S
HOUGHTON LAKE  PTCLDY    55  50  83 NE5       30.06R
MANISTEE       CLEAR     60  54  80 E6        30.02S
OSCODA         CLOUDY    67  59  76 NE10      30.04R
PELLSTON       CLEAR     49  47  93 CALM      30.08R
ROGERS CITY    PTCLDY    51  48  89 CALM      30.07F
TRAVERSE CITY  CLEAR     57  51  80 CALM      30.04R
$$
MIZ007>008-015-300900-
EASTERN UPPER MICHIGAN

CITY           SKY/WX    TMP DP  RH WIND       PRES   REMARKS
KINROSS        CLEAR     60  55  83 N3        30.08S
MACKINAC ISLAN CLEAR     58  58 100 CALM      30.07F
NEWBERRY       CLEAR     50  50 100 CALM      30.08S
S. S. MARIE    CLEAR     58  56  93 CALM      30.07S
MUNISING         N/A     52  51  97 S6        30.08R
$$
MIZ004>006-011>014-085-300900-
CENTRAL UPPER MICHIGAN

CITY           SKY/WX    TMP DP  RH WIND       PRES   REMARKS
MANISTIQUE     PTCLDY    53  52  97 N3        30.07S
ESCANABA       CLEAR     52  50  93 CALM      30.06S
MENOMINEE      CLEAR    N/A N/A N/A NE6       30.05R
SAWYER-GWINN   PTCLDY    52  50  93 CALM      30.09S
$$
MIZ001>003-009>011-084-300900-
WESTERN UPPER MICHIGAN

CITY           SKY/WX    TMP DP  RH WIND       PRES   REMARKS
IRON MOUNTAIN  CLEAR     54  50  86 NW5       30.07S
HOUGHTON       CLEAR     58  56  93 E7        30.07F
COPPER HARBOR    N/A     56  53  90 W6        30.07S
IRONWOOD       PTCLDY    55  54  94 CALM      30.05S
$$

ABBREVIATIONS USED IN REMARKS
   TC - TEMPERATURE IN CELSIUS
  WCI - WIND CHILL INDEX
   HX - HEAT INDEX
  VSB - VISIBILITY





USA.gov is the U.S. government's official web portal to all federal, state and local government web resources and services.